ELEKTRO-L 2

Last updated on Thu Jul 03 2025 00:02:22 GMT+0000 (Coordinated Universal Time)

1 41105U 15074A 25183.06404654 -.00000114 00000+0 00000+0 0 9991 2 41105 5.8100 74.8562 0000954 196.5872 17.4953 1.00272260 34999
UTC large
Height (km)
Speed (km/s)
/
Latitude / Longitude
Inclination (degrees)
Orbital Period (minutes)
Azimuth
Elevation
Range (km)
Doppler Factor

Next 0 passes for location: London (51.5072 / 0.1276)

Sorry there are no passes over London.